GW3595 Weather Reports


time (UTC)temp
C
wind
direction
speed
KPH
gust
KPH
rain 1hr
cm
rain 24hr
cm
rain mn
cm
humidity
%
barometer
mb
20260507202204 10 172 1.6 6.4 0.00 0.20 0.20 92 1015.6
20260507201204 10 128 1.6 1.6 0.00 0.20 0.20 92 1015.4
20260507200704 10 259 0.0 3.2 0.00 0.20 0.20 92 1015.2
20260507200204 10 259 0.0 3.2 0.00 0.20 0.20 91 1015.1
20260507195704 10 259 1.6 3.2 0.00 0.20 0.20 91 1015.1
20260507195205 10 215 1.6 3.2 0.00 0.20 0.20 90 1015.0
20260507194205 11 42 0.0 4.8 0.00 0.20 0.20 90 1014.8
20260507193704 11 42 1.6 4.8 0.00 0.20 0.20 89 1014.6
20260507193205 11 42 1.6 9.7 0.00 0.20 0.20 89 1014.5
20260507192704 11 63 1.6 9.7 0.00 0.20 0.20 88 1014.4
20260507191705 11 74 3.2 9.7 0.00 0.20 0.20 87 1014.1
20260507191205 11 103 4.8 9.7 0.00 0.20 0.20 87 1013.9
20260507190705 11 85 4.8 11.3 0.00 0.20 0.20 87 1013.9
20260507190204 11 82 4.8 12.9 0.00 0.20 0.20 88 1013.7
20260507185705 11 67 3.2 12.9 0.03 0.20 0.20 88 1013.7
20260507185204 11 152 3.2 12.9 0.03 0.20 0.20 88 1013.6
20260507184704 11 128 3.2 8.0 0.03 0.20 0.20 89 1013.6
20260507184205 11 91 3.2 9.7 0.05 0.20 0.20 89 1013.5
20260507183704 11 175 3.2 9.7 0.05 0.20 0.20 88 1013.5
20260507183205 11 79 4.8 9.7 0.05 0.20 0.20 88 1013.4
20260507182704 11 55 6.4 12.9 0.10 0.20 0.20 88 1013.4
20260507182205 11 52 6.4 12.9 0.15 0.20 0.20 88 1013.3
20260507181720 11 56 6.4 12.9 0.15 0.20 0.20 88 1013.3
20260507181228 11 111 6.4 14.5 0.18 0.20 0.20 87 1013.4
20260507180704 11 79 4.8 14.5 0.18 0.20 0.20 87 1013.5
20260507180205 11 325 3.2 9.7 0.18 0.20 0.20 87 1013.6
20260507175705 11 315 3.2 14.5 0.15 0.18 0.18 87 1013.7
20260507174705 11 30 6.4 16.1 0.15 0.18 0.18 86 1013.6
20260507173704 12 80 9.7 17.7 0.15 0.15 0.15 84 1013.0
20260507173204 12 61 8.0 17.7 0.13 0.13 0.13 83 1012.7
20260507172205 12 40 8.0 27.4 0.05 0.05 0.05 80 1013.0
20260507171704 13 0 12.9 27.4 0.03 0.03 0.03 77 1012.7
20260507171205 13 0 14.5 27.4 0.03 0.03 0.03 74 1012.5
20260507165705 13 0 11.3 25.7 0.03 0.03 0.03 74 1012.5
20260507165205 13 0 9.7 25.7 0.03 0.03 0.03 76 1012.2
20260507164705 13 0 11.3 25.7 0.03 0.03 0.03 76 1012.0
20260507164205 13 0 9.7 17.7 0.00 0.00 0.00 77 1012.0
20260507163705 13 0 6.4 24.1 0.00 0.00 0.00 78 1012.2
20260507163204 13 0 8.0 24.1 0.00 0.00 0.00 77 1012.2
20260507162204 13 0 8.0 20.9 0.00 0.00 0.00 77 1011.9
20260507161704 13 0 6.4 20.9 0.00 0.00 0.00 77 1011.8
20260507161205 13 0 8.0 20.9 0.00 0.00 0.00 77 1011.7
20260507160704 13 0 8.0 22.5 0.00 0.00 0.00 77 1011.7
20260507160205 14 0 9.7 22.5 0.00 0.00 0.00 77 1011.5
20260507155205 14 0 6.4 14.5 0.00 0.00 0.00 78 1011.4
20260507154704 14 0 6.4 20.9 0.00 0.00 0.00 78 1011.3
20260507154205 14 0 6.4 20.9 0.00 0.00 0.00 77 1011.0
20260507153705 14 0 6.4 20.9 0.00 0.00 0.00 74 1010.9
20260507153205 14 0 6.4 19.3 0.00 0.00 0.00 74 1010.8
20260507152705 15 0 4.8 16.1 0.00 0.00 0.00 73 1010.7
20260507151705 15 0 6.4 16.1 0.00 0.00 0.00 70 1010.8
20260507151204 15 168 8.0 16.1 0.00 0.00 0.00 69 1010.6
20260507150704 16 168 6.4 16.1 0.00 0.00 0.00 67 1010.6
20260507150205 16 221 6.4 27.4 0.00 0.00 0.00 64 1010.4
20260507145704 17 0 6.4 27.4 0.00 0.00 0.00 59 1010.2
20260507145205 18 134 6.4 19.3 0.00 0.00 0.00 55 1010.0
20260507144704 19 151 6.4 19.3 0.00 0.00 0.00 52 1009.6
20260507144205 21 319 3.2 11.3 0.00 0.00 0.00 48 1009.8
20260507143704 21 182 3.2 11.3 0.00 0.00 0.00 46 1009.5
20260507143205 21 294 4.8 16.1 0.00 0.00 0.00 46 1009.3
20260507142704 20 280 4.8 16.1 0.00 0.00 0.00 47 1009.2
20260507142204 21 221 4.8 16.1 0.00 0.00 0.00 46 1009.1
20260507141705 20 253 6.4 16.1 0.00 0.00 0.00 47 1009.2
20260507141204 20 258 8.0 16.1 0.00 0.00 0.00 47 1009.2
20260507140704 20 263 8.0 16.1 0.00 0.00 0.00 46 1009.3
20260507140204 20 213 6.4 12.9 0.00 0.00 0.00 46 1009.3
20260507135704 21 240 6.4 12.9 0.00 0.00 0.00 45 1009.2
20260507135204 21 227 6.4 14.5 0.00 0.00 0.00 44 1009.2
20260507134704 21 186 6.4 25.7 0.00 0.00 0.00 44 1009.3
20260507134205 21 237 8.0 25.7 0.00 0.00 0.00 45 1009.3
20260507133704 22 238 8.0 25.7 0.00 0.00 0.00 43 1009.3
20260507133205 21 265 8.0 22.5 0.00 0.00 0.00 45 1009.4
20260507132704 21 243 8.0 22.5 0.00 0.00 0.00 44 1009.4
20260507132205 21 249 8.0 19.3 0.00 0.00 0.00 45 1009.5
20260507131233 21 244 6.4 16.1 0.00 0.00 0.00 46 1009.8
20260507130722 20 205 6.4 16.1 0.00 0.00 0.00 48 1009.7
20260507125705 20 184 6.4 22.5 0.00 0.00 0.00 48 1009.8
20260507125204 20 195 6.4 22.5 0.00 0.00 0.00 47 1009.8
20260507124705 21 150 4.8 14.5 0.00 0.00 0.00 46 1009.9
20260507124204 21 259 6.4 14.5 0.00 0.00 0.00 45 1009.7
20260507123704 21 292 6.4 11.3 0.00 0.00 0.00 43 1009.7
20260507122705 21 242 4.8 11.3 0.00 0.00 0.00 46 1009.8
20260507122205 20 189 4.8 16.1 0.00 0.00 0.00 44 1009.8
20260507121205 21 211 6.4 16.1 0.00 0.00 0.00 43 1009.9
20260507120705 21 273 4.8 17.7 0.00 0.00 0.00 44 1009.9
20260507120205 21 234 6.4 17.7 0.00 0.00 0.00 41 1010.0
20260507115726 21 263 6.4 17.7 0.00 0.00 0.00 42 1010.1
20260507115204 21 244 6.4 14.5 0.00 0.00 0.00 43 1010.1
20260507114204 21 279 6.4 14.5 0.00 0.00 0.00 44 1010.1
20260507113704 21 209 4.8 14.5 0.00 0.00 0.00 44 1010.2
20260507113205 21 265 6.4 14.5 0.00 0.00 0.00 44 1010.2
20260507112704 21 166 6.4 14.5 0.00 0.00 0.00 44 1010.2
20260507112205 21 200 6.4 14.5 0.00 0.00 0.00 45 1010.4
20260507111704 21 0 4.8 12.9 0.00 0.00 0.00 47 1010.5
20260507111205 21 218 4.8 12.9 0.00 0.00 0.00 48 1010.5
20260507110205 21 217 4.8 17.7 0.00 0.00 0.00 44 1010.6
20260507105705 21 207 8.0 16.1 0.00 0.00 0.00 45 1010.6
20260507105204 21 177 4.8 11.3 0.00 0.00 0.00 46 1010.7
20260507104704 21 200 4.8 11.3 0.00 0.00 0.00 45 1010.8
20260507103704 21 0 4.8 16.1 0.00 0.00 0.00 48 1010.9
20260507103205 20 265 6.4 16.1 0.00 0.00 0.00 51 1010.9
20260507102704 21 208 8.0 17.7 0.00 0.00 0.00 48 1011.0
20260507102205 21 228 6.4 17.7 0.00 0.00 0.00 52 1010.9
20260507101705 21 175 6.4 17.7 0.00 0.00 0.00 50 1011.0
20260507100704 20 192 4.8 12.9 0.00 0.00 0.00 52 1011.1
20260507095704 20 265 6.4 11.3 0.00 0.00 0.00 53 1011.4
20260507095205 20 208 6.4 14.5 0.00 0.00 0.00 52 1011.3
20260507094704 19 0 6.4 14.5 0.00 0.00 0.00 55 1011.5
20260507094204 19 221 4.8 14.5 0.00 0.00 0.00 53 1011.4
20260507093705 20 232 4.8 14.5 0.00 0.00 0.00 53 1011.5
20260507093204 20 257 4.8 12.9 0.00 0.00 0.00 53 1011.5
20260507092705 19 277 6.4 12.9 0.00 0.00 0.00 55 1011.4
20260507092204 19 261 6.4 12.9 0.00 0.00 0.00 55 1011.4
20260507091705 19 227 6.4 12.9 0.00 0.00 0.00 55 1011.4
20260507091204 19 287 6.4 12.9 0.00 0.00 0.00 56 1011.3
20260507090704 18 261 6.4 11.3 0.00 0.00 0.00 55 1011.4
20260507090205 18 210 4.8 9.7 0.00 0.00 0.00 55 1011.3
20260507085704 18 197 4.8 9.7 0.00 0.00 0.00 56 1011.3
20260507084704 18 297 4.8 9.7 0.00 0.00 0.00 58 1011.3
20260507084205 18 282 3.2 9.7 0.00 0.00 0.00 58 1011.2
20260507083704 18 266 3.2 11.3 0.00 0.00 0.00 59 1011.3
20260507082205 18 282 6.4 11.3 0.00 0.00 0.00 62 1011.2
20260507081705 18 255 6.4 11.3 0.00 0.00 0.00 62 1011.2
20260507081205 18 229 4.8 9.7 0.00 0.00 0.00 63 1011.1
20260507080721 17 294 4.8 9.7 0.00 0.00 0.00 64 1011.1
20260507075704 18 257 4.8 9.7 0.00 0.00 0.00 63 1011.1
20260507075204 17 246 3.2 4.8 0.00 0.00 0.00 67 1011.1
20260507074704 17 265 1.6 4.8 0.00 0.00 0.00 66 1011.1
20260507074205 16 202 1.6 6.4 0.00 0.00 0.00 69 1011.1
20260507072205 16 144 4.8 11.3 0.00 0.00 0.00 71 1010.9
20260507071705 16 138 6.4 9.7 0.00 0.00 0.00 72 1010.8
20260507071204 16 146 4.8 9.7 0.00 0.00 0.00 73 1010.8
20260507070704 16 126 4.8 9.7 0.00 0.00 0.00 73 1010.8
20260507070204 16 115 3.2 8.0 0.00 0.00 0.00 74 1010.8
20260507065705 15 119 3.2 6.4 0.00 0.00 0.00 75 1010.9
20260507065205 15 115 3.2 6.4 0.00 0.00 0.00 76 1010.9
20260507063704 13 0 3.2 4.8 0.00 0.00 0.00 80 1010.9
20260507063205 13 0 1.6 4.8 0.00 0.00 0.00 81 1010.9
20260507062704 13 0 1.6 4.8 0.00 0.00 0.00 81 1011.0
20260507062205 13 0 1.6 6.4 0.00 0.00 0.00 82 1010.9
20260507061704 13 0 1.6 6.4 0.00 0.00 0.00 82 1010.8
20260507061205 13 0 1.6 6.4 0.00 0.00 0.00 83 1010.8
20260507060705 13 0 3.2 6.4 0.00 0.00 0.00 83 1010.7
20260507060204 12 0 3.2 6.4 0.00 0.00 0.00 83 1010.7
20260507055705 12 0 3.2 4.8 0.00 0.00 0.00 84 1010.7
20260507055205 12 0 1.6 4.8 0.00 0.00 0.00 85 1010.7
20260507054205 12 0 1.6 4.8 0.00 0.00 0.00 85 1010.6
20260507053704 12 0 3.2 4.8 0.00 0.00 0.00 85 1010.6
20260507053205 12 0 3.2 4.8 0.00 0.00 0.00 86 1010.6
20260507052704 12 0 1.6 4.8 0.00 0.00 0.00 85 1010.5
20260507052205 12 0 1.6 4.8 0.00 0.00 0.00 85 1010.5
20260507051704 12 0 1.6 4.8 0.00 0.00 0.00 85 1010.2
20260507051205 12 0 1.6 4.8 0.00 0.00 0.00 84 1010.2
20260507050204 11 0 3.2 6.4 0.00 0.00 0.00 84 1010.2
20260507045705 11 0 3.2 6.4 0.00 0.00 0.00 85 1010.1
20260507045205 11 0 3.2 4.8 0.00 0.00 0.00 85 1010.1
20260507044704 11 0 3.2 4.8 0.00 0.00 0.00 86 1010.0
20260507044205 11 0 3.2 4.8 0.00 0.00 0.00 86 1010.0
20260507043704 11 0 1.6 3.2 0.00 0.00 0.00 87 1010.0
20260507043205 11 0 0.0 3.2 0.00 0.00 0.00 87 1010.0
20260507042705 11 0 0.0 6.4 0.00 0.00 0.00 87 1010.0
20260507041705 11 0 3.2 6.4 0.00 0.00 0.00 87 1009.9
20260507041204 11 0 3.2 6.4 0.00 0.00 0.00 88 1009.9
20260507040704 11 0 1.6 4.8 0.00 0.00 0.00 89 1009.8
20260507035705 11 0 0.0 6.4 0.00 0.00 0.00 89 1009.8
20260507035205 11 0 1.6 6.4 0.00 0.00 0.00 88 1009.7
20260507034704 11 0 3.2 6.4 0.00 0.00 0.00 88 1009.7
20260507034205 11 0 1.6 4.8 0.00 0.00 0.00 89 1009.7
20260507032205 11 0 1.6 3.2 0.00 0.00 0.00 89 1009.4
20260507031705 11 0 1.6 3.2 0.00 0.00 0.00 89 1009.4
20260507030705 11 0 0.0 3.2 0.00 0.00 0.00 89 1009.4
20260507030205 11 0 0.0 3.2 0.00 0.00 0.00 89 1009.4
20260507025705 11 0 1.6 3.2 0.00 0.00 0.00 88 1009.4
20260507025204 11 0 0.0 1.6 0.00 0.00 0.00 88 1009.4
20260507024204 11 0 0.0 1.6 0.00 0.00 0.00 88 1009.3
20260507023204 11 0 0.0 3.2 0.00 0.00 0.00 88 1009.2
20260507022705 11 0 0.0 3.2 0.00 0.00 0.00 88 1009.3
20260507022205 11 0 0.0 3.2 0.00 0.00 0.00 88 1009.4
20260507021704 11 0 0.0 3.2 0.00 0.00 0.00 88 1009.3
20260507021205 11 0 0.0 3.2 0.00 0.00 0.00 88 1009.3
20260507020722 11 0 0.0 1.6 0.00 0.00 0.00 88 1009.3
20260507020205 11 0 0.0 1.6 0.00 0.00 0.00 88 1009.2
20260507015204 11 0 0.0 3.2 0.00 0.00 0.00 88 1009.3
20260507014705 11 0 0.0 3.2 0.00 0.00 0.00 88 1009.3
20260507014204 11 0 1.6 3.2 0.00 0.00 0.00 88 1009.3
20260507013705 11 0 1.6 4.8 0.00 0.00 0.00 88 1009.3
20260507013204 11 0 1.6 4.8 0.00 0.00 0.00 88 1009.2
20260507012705 11 0 1.6 4.8 0.00 0.00 0.00 88 1009.2
20260507012205 11 0 0.0 3.2 0.00 0.00 0.00 88 1009.2
20260507011212 11 0 0.0 4.8 0.00 0.00 0.00 87 1009.1
20260507010704 11 0 0.0 4.8 0.00 0.00 0.00 87 1009.1
20260507010204 11 0 1.6 4.8 0.00 0.00 0.00 87 1009.1
20260507005705 11 0 1.6 3.2 0.00 0.00 0.00 87 1009.0
20260507005204 11 0 0.0 3.2 0.00 0.00 0.00 87 1009.0
20260507004705 12 0 0.0 3.2 0.00 0.00 0.00 86 1009.0
20260507004204 12 0 1.6 4.8 0.00 0.00 0.00 86 1008.9
20260507003705 12 0 1.6 4.8 0.00 0.00 0.00 86 1008.9
20260507003205 12 0 1.6 4.8 0.00 0.00 0.00 86 1008.9
20260507002704 12 0 1.6 4.8 0.00 0.00 0.00 87 1009.0
20260507002205 12 0 0.0 1.6 0.00 0.00 0.00 87 1008.9
20260507001704 12 0 0.0 1.6 0.00 0.00 0.00 87 1008.8
20260507001205 12 0 0.0 1.6 0.00 0.00 0.00 87 1008.9
20260507000705 12 0 0.0 1.6 0.00 0.00 0.00 87 1008.9
20260507000205 12 0 0.0 3.2 0.00 0.00 0.00 86 1008.9
20260506235705 12 0 0.0 3.2 0.00 0.00 0.00 86 1008.9
20260506235204 12 0 1.6 3.2 0.00 0.00 0.00 85 1008.9
20260506234704 12 0 0.0 3.2 0.00 0.00 0.00 85 1008.8
20260506233704 12 126 1.6 3.2 0.00 0.00 0.00 84 1008.8
20260506233204 13 111 1.6 3.2 0.00 0.00 0.00 84 1008.9
20260506232205 13 244 1.6 8.0 0.00 0.00 0.00 83 1008.7
20260506231704 13 234 3.2 8.0 0.00 0.00 0.00 83 1008.8
20260506231220 13 211 4.8 8.0 0.00 0.00 0.00 83 1008.6
20260506230704 13 202 4.8 6.4 0.00 0.00 0.00 83 1008.8
20260506230205 13 209 3.2 6.4 0.00 0.00 0.00 83 1008.9
20260506225704 13 189 1.6 6.4 0.00 0.00 0.00 83 1008.8
20260506225205 13 150 1.6 6.4 0.00 0.00 0.00 84 1008.8
20260506224705 13 153 1.6 6.4 0.00 0.00 0.00 84 1008.8
20260506224205 13 191 1.6 1.6 0.00 0.00 0.00 84 1008.7
20260506223705 13 116 0.0 3.2 0.00 0.00 0.00 84 1008.6
20260506223204 13 114 0.0 3.2 0.00 0.00 0.00 83 1008.6
20260506222705 13 117 1.6 1.6 0.00 0.00 0.00 83 1008.6
20260506221705 13 112 0.0 1.6 0.00 0.00 0.00 83 1008.7
20260506221205 13 109 0.0 1.6 0.00 0.00 0.00 83 1008.7
20260506220705 13 110 0.0 0.0 0.00 0.00 0.00 83 1008.8
20260506220205 13 108 0.0 1.6 0.00 0.00 0.00 84 1008.8
20260506215704 13 111 0.0 1.6 0.00 0.00 0.00 83 1008.8
20260506215205 13 110 0.0 1.6 0.00 0.00 0.00 84 1008.7
20260506214704 13 112 0.0 1.6 0.00 0.00 0.00 84 1008.8
20260506214205 12 116 0.0 1.6 0.00 0.00 0.00 84 1008.8
20260506213704 13 115 0.0 3.2 0.00 0.00 0.00 84 1008.8
20260506213205 13 119 1.6 3.2 0.00 0.00 0.00 84 1008.7
20260506212704 13 119 1.6 1.6 0.00 0.00 0.00 84 1008.6
20260506212205 13 106 0.0 3.2 0.00 0.00 0.00 84 1008.6
20260506211705 13 107 0.0 3.2 0.00 0.00 0.00 84 1008.6
20260506211205 12 109 0.0 3.2 0.00 0.00 0.00 84 1008.5
20260506210204 13 118 0.0 1.6 0.00 0.00 0.00 83 1008.4
20260506205705 13 119 0.0 6.4 0.00 0.00 0.00 82 1008.4
20260506205204 13 116 1.6 6.4 0.00 0.00 0.00 82 1008.5
20260506204704 13 117 1.6 6.4 0.00 0.00 0.00 81 1008.4
20260506204205 13 116 1.6 4.8 0.00 0.00 0.00 80 1008.5
20260506203704 14 110 0.0 4.8 0.00 0.00 0.00 79 1008.5
20260506203204 14 207 1.6 4.8 0.00 0.00 0.00 78 1008.5